Weather observations for the past three days for
Marion Municipal Airport
Imperial (Metric)
Date Time (edt) Wind (mph) Vis. (mi.) Weather Sky Cond. Temperature (ºF) Relative Humidity Wind Chill (°F) Heat Index (°F) Pressure Precipitation (in)
Air Dwpt 6 hour altimeter (in) sea level (mb) 1 hr 3 hr 6 hr
Max. Min.
22 04:35 Calm 7.00 Fair CLR 70.5 67.1 89% 30.11 0.0
22 04:15 Calm 7.00 Fair CLR 70.2 66.9 90% 30.11 0.0
22 03:55 Calm 10.00 Fair CLR 69.6 67.1 92% 30.11 0.0
22 03:35 Calm 10.00 Fair CLR 70 67.1 91% 30.11 0.0
22 03:15 Calm 7.00 Fair CLR 70.2 67.1 90% 30.11 0.0
22 02:55 S 3 10.00 Fair CLR 70.2 67.3 91% 30.11 0.0
22 02:35 Calm 10.00 Fair CLR 70.9 67.3 88% 30.11 0.0
22 02:15 Calm 7.00 Fair CLR 71.6 67.6 87% 30.11 0.0
22 01:55 Calm 10.00 Fair CLR 71.8 68 92.8 24.3 88% 30.11 0.0
22 01:35 Calm 10.00 Fair CLR 72.7 68 85% 30.11 0.0
22 01:15 Calm 10.00 Fair CLR 72.5 68 86% 30.12 0.0
22 00:55 Calm 10.00 Fair CLR 73.2 68.4 85% 30.12 0.0
22 00:35 Calm 10.00 Fair CLR 73.6 68.2 83% 30.12 0.0
22 00:15 Calm 10.00 Fair CLR 74.3 68.2 81% 30.12 0.0
21 23:55 Calm 10.00 Fair CLR 75.2 68.2 79% 76 30.13 0.0
21 23:35 Calm 10.00 Fair CLR 76.1 68.2 77% 77 30.13 0.0
21 23:15 Calm 5.00 Fair with Haze CLR 77 68 74% 79 30.13 0.0
21 22:55 Calm 10.00 Fair CLR 77.4 67.6 72% 79 30.13 0.0
21 22:35 SW 3 7.00 Fair CLR 77.4 68 73% 79 30.14 0.0
21 22:15 SW 3 10.00 Fair CLR 78.4 67.8 70% 81 30.13 0.0
21 21:55 W 3 10.00 Fair CLR 79.5 67.8 68% 82 30.13 0.0
21 21:35 W 5 7.00 Fair CLR 80.8 67.3 64% 83 30.13 0.0
21 21:15 W 3 7.00 Fair CLR 83.1 66.6 57% 86 30.13 0.0
21 20:55 SW 5 7.00 Fair CLR 84.6 66.7 55% 87 30.13 0.0
21 20:35 W 6 5.00 Fair with Haze CLR 86.2 66.2 51% 89 30.13 0.0
21 20:15 W 8 7.00 Fair CLR 87.3 66.2 50% 90 30.13 0.0
21 19:55 W 8 7.00 Fair CLR 88 66.4 92.8 24.3 49% 91 30.14 0.0
21 19:35 SW 7 4.00 Fair with Haze CLR 88.5 66.6 48% 91 30.13 0.0
21 19:15 SW 8 5.00 Fair with Haze CLR 88.7 66.6 48% 91 30.13 0.0
21 18:55 SW 9 5.00 Fair with Haze CLR 89.4 66.6 47% 92 30.13 0.0
21 18:35 SW 8 5.00 Partly Cloudy with Haze SCT060 89.6 66.6 47% 92 30.13 0.0
21 18:15 SW 7 3.00 Partly Cloudy with Haze SCT060 90 66.2 46% 93 30.13 0.0
21 17:55 SW 5 5.00 Partly Cloudy with Haze SCT060 90.7 66.9 46% 94 30.14 0.0
21 17:35 W 3 5.00 Fair with Haze CLR 90.5 66.7 46% 94 30.15 0.0
21 17:15 W 5 5.00 Fair with Haze CLR 90.3 66.4 45% 93 30.16 0.0
21 16:55 SW 6 7.00 Partly Cloudy SCT060 90.7 66.7 45% 94 30.16 0.0
21 16:35 W 12 5.00 Partly Cloudy with Haze SCT060 90.7 66.7 45% 94 30.16 0.0
21 16:15 W 6 7.00 Partly Cloudy SCT060 91.2 66 43% 94 30.17 0.0
21 15:55 W 8 5.00 Fair with Haze CLR 90.7 64.8 42% 93 30.17 0.0
21 15:35 Calm 5.00 Partly Cloudy with Haze SCT070 89.6 64.8 44% 91 30.18 0.0
21 15:15 NW 6 5.00 Fair with Haze CLR 89.6 65.3 45% 92 30.19 0.0
21 14:55 Calm 4.00 Fair with Haze CLR 89.1 65.1 45% 91 30.19 0.0
21 14:35 W 5 4.00 Partly Cloudy with Haze SCT060 SCT070 90.1 65.5 44% 92 30.2 0.0
21 14:15 W 6 5.00 Partly Cloudy with Haze SCT060 89.6 64.6 44% 91 30.21 0.0
21 13:55 W 9 7.00 Partly Cloudy SCT070 89.8 65.7 92.8 24.3 45% 92 30.22 0.0
21 13:35 W 5 5.00 Partly Cloudy with Haze SCT060 88.7 66 47% 91 30.23 0.0
21 13:15 W 5 5.00 Partly Cloudy with Haze SCT060 89.1 65.8 46% 91 30.23 0.0
21 12:55 Calm 5.00 Fair with Haze CLR 88.7 66.4 48% 91 30.23 0.0
21 12:35 W 7 5.00 Partly Cloudy with Haze SCT055 88.5 66.4 48% 91 30.24 0.0
21 12:15 W 3 5.00 Mostly Cloudy with Haze BKN055 87.8 66 49% 90 30.24 0.0
21 11:55 W 5 7.00 Fair CLR 87.6 67.3 51% 91 30.25 0.0
21 11:35 NW 6 7.00 Fair CLR 87.1 67.3 52% 90 30.25 0.0
21 11:15 NW 5 7.00 Partly Cloudy SCT060 86 67.6 54% 89 30.25 0.0
21 10:55 NW 6 7.00 Partly Cloudy SCT060 85.3 68.5 57% 89 30.26 0.0
21 10:35 NW 5 7.00 Mostly Cloudy BKN060 84.2 69.6 62% 88 30.26 0.0
21 10:15 NW 3 7.00 Partly Cloudy SCT060 82.9 69.6 64% 87 30.26 0.0
21 09:55 Calm 7.00 Fair CLR 81.9 69.8 67% 86 30.26 0.0
21 09:35 NW 3 7.00 Fair CLR 80.8 70 70% 84 30.27 0.0
21 09:15 Calm 7.00 Fair CLR 79.3 69.4 72% 82 30.27 0.0
21 08:55 W 5 7.00 Fair CLR 78.3 69.3 74% 81 30.26 0.0
21 08:35 SW 3 7.00 Fair CLR 77.2 69.6 78% 79 30.26 0.0
21 08:15 Calm 10.00 Fair CLR 75.4 69.8 83% 76 30.26 0.0
21 07:55 Calm 10.00 Fair CLR 73.8 69.8 92.8 24.3 88% 30.26 0.0
21 07:35 Calm 7.00 Fair CLR 71.8 69.1 91% 30.26 0.0
21 07:15 Calm 7.00 Fair CLR 70.2 68.2 93% 30.26 0.0
21 06:55 Calm 7.00 Fair CLR 68.7 67.6 96% 30.26 0.0
21 06:35 Calm 10.00 Fair CLR 68.4 67.3 96% 30.26 0.0
21 06:15 Calm 7.00 Fair CLR 68.5 67.5 96% 30.25 0.0
21 05:55 Calm 10.00 Fair CLR 68.4 67.3 96% 30.25 0.0
21 05:35 Calm 10.00 Fair CLR 68.9 67.5 95% 30.25 0.0
21 05:15 Calm 10.00 Fair CLR 69.1 67.6 95% 30.24 0.0
21 04:55 Calm 10.00 Fair CLR 69.4 67.8 95% 30.24 0.0
21 04:35 Calm 10.00 Fair CLR 69.8 67.8 93% 30.24 0.0
21 04:15 Calm 10.00 Fair CLR 70 68 93% 30.24 0.0
21 03:55 Calm 7.00 Fair CLR 70.3 68.2 93% 30.24 0.0
21 03:35 Calm 7.00 Fair CLR 70.7 68.7 93% 30.24 0.0
21 03:15 Calm 7.00 Fair CLR 71.6 68.2 89% 30.24 0.0
21 02:55 Calm 10.00 Fair CLR 72.3 67.6 85% 30.25 0.0
21 02:35 Calm 7.00 Fair CLR 72.5 67.8 85% 30.25 0.0
21 02:15 Calm 10.00 Fair CLR 73 68 84% 30.25 0.0
21 01:55 Calm 7.00 Fair CLR 73.2 68.5 92.8 24.3 85% 30.25 0.0
21 01:35 Calm 10.00 Fair CLR 72.9 69.3 89% 30.25 0.0
21 01:15 Calm 7.00 Fair CLR 73 69.4 89% 30.25 0.0
21 00:55 Calm 7.00 Fair CLR 73.2 69.6 89% 30.26 0.0
21 00:35 Calm 10.00 Fair CLR 73.8 69.4 86% 30.26 0.0
21 00:15 Calm 10.00 Fair CLR 74.5 69.4 84% 30.26 0.0
20 23:55 Calm 7.00 Fair CLR 75.2 69.3 82% 76 30.26 0.0
20 23:35 Calm 7.00 Fair CLR 76.6 69.4 79% 78 30.26 0.0
20 23:15 Calm 7.00 Fair CLR 76.8 69.3 78% 78 30.26 0.0
20 22:55 Calm 10.00 Fair CLR 77.2 68.7 75% 79 30.26 0.0
20 22:35 Calm 7.00 Fair CLR 77 69.4 78% 79 30.26 0.0
20 22:15 SW 3 7.00 Fair CLR 77.9 69.6 76% 80 30.26 0.0
20 21:55 SW 3 7.00 Fair CLR 79.7 68.5 69% 82 30.25 0.0
20 21:35 SW 3 5.00 Fair with Haze CLR 81.1 68.9 66% 84 30.24 0.0
20 21:15 Calm 7.00 Fair CLR 82.6 69.3 64% 86 30.24 0.0
20 20:55 SW 3 4.00 Fair with Haze CLR 83.8 69.1 61% 88 30.24 0.0
20 20:35 SW 5 4.00 Fair with Haze CLR 85.6 68.4 56% 89 30.24 0.0
20 20:15 SW 5 5.00 Fair with Haze CLR 86.9 68.2 54% 91 30.24 0.0
20 19:55 SW 3 5.00 Fair with Haze CLR 87.8 67.6 92.8 24.3 51% 91 30.24 0.0
20 19:35 SW 6 4.00 Fair with Haze CLR 88.3 67.3 50% 92 30.24 0.0
20 19:15 W 7 5.00 Fair with Haze CLR 89.1 67.3 49% 92 30.24 0.0
20 18:55 W 6 7.00 Fair CLR 89.2 67.1 48% 92 30.24 0.0
20 18:35 W 7 5.00 Fair with Haze CLR 89.4 67.3 48% 93 30.24 0.0
20 18:15 SW 7 5.00 Partly Cloudy with Haze SCT060 89.8 67.8 48% 94 30.25 0.0
20 17:55 W 7 7.00 Partly Cloudy SCT060 89.8 67.3 48% 93 30.25 0.0
20 17:35 W 6 7.00 Fair CLR 90 67.3 47% 93 30.25 0.0
20 17:15 SW 10 5.00 Fair with Haze CLR 90.1 68 48% 94 30.25 0.0
20 16:55 SW 10 7.00 Partly Cloudy SCT055 SCT075 90.9 68.2 47% 95 30.26 0.0
20 16:35 S 7 7.00 Mostly Cloudy BKN055 BKN075 89.4 67.6 49% 93 30.26 0.0
20 16:15 SW 6 4.00 Partly Cloudy with Haze SCT055 90.3 68 48% 94 30.27 0.0
20 15:55 S 6 7.00 Partly Cloudy SCT055 89.2 67.3 48% 93 30.28 0.0
20 15:35 SW 5 7.00 Mostly Cloudy BKN055 BKN070 88.3 67.1 49% 91 30.29 0.0
20 15:15 Calm 5.00 Partly Cloudy with Haze SCT055 SCT070 89.2 66.7 47% 92 30.29 0.0
20 14:55 SW 7 7.00 Partly Cloudy SCT055 SCT070 88.5 67.3 50% 92 30.29 0.0
20 14:35 SW 6 7.00 Partly Cloudy SCT060 89.2 67.1 48% 92 30.3 0.0
20 14:15 SW 3 7.00 Partly Cloudy SCT050 89.4 68.5 50% 94 30.3 0.0
20 13:55 Calm 7.00 Partly Cloudy SCT050 SCT060 88.7 68.7 92.8 24.3 52% 93 30.31 0.0
20 13:35 W 3 5.00 Partly Cloudy with Haze SCT050 SCT060 88.3 68.9 53% 93 30.31 0.0
20 13:15 Calm 5.00 Partly Cloudy with Haze SCT065 88 69.1 54% 92 30.31 0.0
20 12:55 NW 3 7.00 Partly Cloudy SCT046 SCT065 87.6 69.3 55% 92 30.31 0.0
20 12:35 SW 6 7.00 Fair CLR 86.9 69.4 56% 91 30.32 0.0
20 12:15 W 5 7.00 Fair CLR 85.8 69.8 59% 90 30.33 0.0
20 11:55 W 6 5.00 Fair with Haze CLR 85.8 70.3 60% 91 30.33 0.0
20 11:35 W 7 7.00 Fair CLR 85.3 70.5 61% 90 30.33 0.0
20 11:15 W 6 7.00 Fair CLR 84.6 70.7 63% 89 30.33 0.0
20 10:55 W 8 10.00 Fair CLR 83.8 71.1 66% 89 30.33 0.0
20 10:35 W 8 7.00 Partly Cloudy SCT047 82.8 70.9 67% 87 30.33 0.0
20 10:15 W 8 7.00 Fair CLR 81.5 71.4 72% 86 30.33 0.0
20 09:55 W 8 7.00 Partly Cloudy SCT060 79.9 71.8 76% 84 30.33 0.0
20 09:35 W 8 7.00 Partly Cloudy SCT060 79.5 71.2 76% 83 30.33 0.0
20 09:15 W 7 7.00 Partly Cloudy SCT048 SCT060 78.6 71.2 78% 81 30.33 0.0
20 08:55 W 7 7.00 Mostly Cloudy BKN046 BKN060 77.5 71.1 81% 79 30.33 0.0
20 08:35 W 6 7.00 Mostly Cloudy BKN046 76.6 71.1 83% 78 30.32 0.0
20 08:15 W 5 7.00 Partly Cloudy SCT046 75.9 70.9 84% 76 30.32 0.0
20 07:55 SW 3 7.00 Partly Cloudy SCT065 75.2 70.7 92.8 24.3 86% 75 30.31 0.0
20 07:35 SW 5 7.00 Partly Cloudy SCT065 74.3 71.1 90% 30.31 0.0
20 07:15 SW 3 7.00 Partly Cloudy SCT065 SCT070 73 70.9 93% 30.31 0.0
20 06:55 SW 3 7.00 Mostly Cloudy SCT048 BKN065 72.1 70.3 94% 30.31 0.0
20 06:35 Calm 7.00 Mostly Cloudy BKN046 71.4 70.2 96% 30.3 0.0
20 06:15 Calm 7.00 Partly Cloudy SCT046 72 70.2 94% 30.3 0.0
20 05:55 Calm 10.00 Partly Cloudy SCT048 SCT065 72.7 70.7 94% 30.29 0.0
20 05:35 Calm 7.00 Mostly Cloudy SCT048 BKN065 73 71.1 94% 30.29 0.0
20 05:15 Calm 10.00 Overcast SCT050 OVC065 73 71.2 94% 30.29 0.0
20 04:55 Calm 7.00 Mostly Cloudy SCT050 BKN065 73.4 71.1 92% 30.29 0.0
20 04:35 Calm 7.00 Partly Cloudy SCT048 SCT065 73.6 71.1 92% 30.28 0.0
20 04:15 Calm 10.00 Overcast SCT048 OVC065 73 71.1 94% 30.28 0.0
20 03:55 Calm 7.00 Mostly Cloudy BKN050 BKN065 73.2 71.2 94% 30.28 0.0
20 03:35 Calm 7.00 Partly Cloudy SCT050 73.2 71.4 94% 30.28 0.0
20 03:15 Calm 7.00 Fair CLR 72.9 71.4 95% 30.28 0.0
20 02:55 Calm 10.00 Fair CLR 72.5 70.9 95% 30.27 0.0
20 02:35 Calm 7.00 Fair CLR 72.5 70.9 95% 30.27 0.0
20 02:15 Calm 7.00 Fair CLR 72.7 71.1 95% 30.27 0.0
20 01:55 Calm 7.00 Fair CLR 73.2 71.2 92.8 24.3 94% 30.27 0.0
20 01:35 Calm 10.00 Fair CLR 73.2 71.6 95% 30.28 0.0
20 01:15 Calm 7.00 Fair CLR 73.4 71.6 94% 30.27 0.0
20 00:55 Calm 7.00 Fair CLR 73.4 71.6 94% 30.27 0.0
20 00:35 Calm 10.00 Fair CLR 73.4 71.8 95% 30.27 0.0
20 00:15 Calm 7.00 Fair CLR 74.3 73.4 97% 30.26 0.0
19 23:55 Calm 7.00 Fair CLR 74.8 72.3 92% 30.26 0.0
19 23:35 Calm 10.00 Partly Cloudy SCT075 75.2 72.5 91% 74 30.26 0.0
19 23:15 Calm 10.00 Partly Cloudy SCT075 75 73.6 95% 73 30.27 0.0
19 22:55 Calm 7.00 Partly Cloudy SCT120 75.2 73.2 94% 74 30.27 0.0
19 22:35 Calm 7.00 Fair CLR 75.9 72.1 88% 76 30.26 0.0
19 22:15 Calm 7.00 Partly Cloudy SCT100 76.3 71.1 84% 77 30.26 0.0
19 21:55 Calm 7.00 Overcast SCT026 BKN050 OVC100 78.3 70.9 78% 81 30.25 0.0
19 21:35 W 6 G 22 5.00 Unknown Precip SCT026 BKN043 OVC110 82 73.8 76% 88 30.25 0.0
19 21:15 Calm 5.00 Partly Cloudy with Haze SCT046 SCT060 83.7 73.4 71% 90 30.24 0.0
19 20:55 Calm 5.00 Partly Cloudy with Haze SCT046 SCT060 84.9 73 68% 92 30.23 0.0
19 20:35 Calm 7.00 Partly Cloudy SCT048 SCT060 85.6 72.9 66% 92 30.23 0.0
19 20:15 W 3 7.00 Partly Cloudy SCT050 SCT060 86.4 72.5 63% 93 30.23 0.0
19 19:55 W 6 5.00 Partly Cloudy with Haze SCT049 SCT060 86.5 72.7 92.8 24.3 63% 94 30.22 0.0
19 19:35 W 3 7.00 Fair CLR 86.5 73.8 66% 95 30.22 0.0
19 19:15 SW 3 7.00 Partly Cloudy SCT045 SCT050 SCT065 87.3 73.4 64% 95 30.22 0.0
19 18:55 S 3 5.00 Partly Cloudy with Haze SCT045 SCT050 SCT065 87.6 72.5 61% 95 30.22 0.0
19 18:35 W 3 7.00 Partly Cloudy SCT050 88.5 72.9 60% 96 30.22 0.0
19 18:15 W 5 7.00 Partly Cloudy SCT049 SCT060 87.8 73.2 62% 96 30.23 0.0
19 17:55 W 3 7.00 Mostly Cloudy SCT049 BKN070 BKN080 87.8 73.6 63% 96 30.23 0.0
19 17:35 NW 8 5.00 Mostly Cloudy with Haze SCT047 SCT060 BKN080 87.4 73.4 63% 95 30.22 0.0
19 17:15 Calm 5.00 Mostly Cloudy with Haze BKN047 BKN085 87.8 70.7 57% 93 30.23 0.0
19 16:55 Calm 5.00 Mostly Cloudy with Haze SCT049 SCT055 BKN085 88.2 71.1 57% 94 30.23 0.0
19 16:35 S 6 5.00 Fair with Haze CLR 89.4 71.2 55% 96 30.23 0.0
19 16:15 Calm 7.00 Fair CLR 89.6 72.1 56% 97 30.24 0.0
19 15:55 Calm 4.00 Partly Cloudy with Haze SCT045 SCT050 88.3 72 58% 95 30.24 0.0
19 15:35 Calm 7.00 Mostly Cloudy SCT043 SCT050 BKN075 88.7 72 58% 96 30.24 0.0
19 15:15 Calm 5.00 Mostly Cloudy with Haze SCT041 BKN075 BKN090 88.7 72 58% 96 30.24 0.0
19 14:55 Calm 3.00 Partly Cloudy with Haze SCT043 SCT060 88 72.1 59% 95 30.25 0.0
19 14:35 W 3 7.00 Partly Cloudy SCT038 SCT060 88.2 72.7 60% 96 30.25 0.0
19 14:15 SW 3 7.00 Mostly Cloudy SCT038 SCT050 BKN060 87.8 72.1 60% 95 30.26 0.0
19 13:55 Calm 7.00 Partly Cloudy SCT040 SCT050 87.3 72.3 92.8 24.3 61% 94 30.26 0.0
19 13:35 Calm 7.00 Partly Cloudy SCT070 SCT095 85.6 71.8 63% 92 30.27 0.0
19 13:15 Calm 7.00 Partly Cloudy SCT070 SCT095 85.6 72 64% 92 30.27 0.0
19 12:55 SW 3 7.00 Partly Cloudy SCT070 SCT080 85.6 72.3 65% 92 30.27 0.0
19 12:35 Calm 5.00 Mostly Cloudy with Haze SCT035 SCT042 BKN075 84.9 72.5 66% 91 30.27 0.0
19 12:15 NW 3 5.00 Mostly Cloudy with Haze BKN035 BKN041 85.3 72.1 65% 91 30.27 0.0
19 11:55 Calm 7.00 Fair CLR 85.5 72.3 65% 92 30.27 0.0
19 11:35 Calm 7.00 Fair CLR 84.7 72.1 66% 91 30.27 0.0
19 11:15 Calm 7.00 Fair CLR 84 72 67% 90 30.27 0.0
19 10:55 Calm 7.00 Fair CLR 83.7 72.7 70% 90 30.28 0.0
19 10:35 Calm 7.00 Fair CLR 82.6 72.9 73% 88 30.27 0.0
19 10:15 Calm 7.00 Partly Cloudy SCT095 81 72.7 76% 86 30.28 0.0
19 09:55 Calm 7.00 Partly Cloudy SCT095 80.1 72.7 78% 84 30.28 0.0
19 09:35 S 3 7.00 Fair CLR 79 72.7 81% 82 30.28 0.0
19 09:15 Calm 7.00 Partly Cloudy SCT080 77.7 72 83% 80 30.27 0.0
19 08:55 S 5 7.00 Partly Cloudy SCT090 SCT110 77 71.6 83% 78 30.26 0.0
19 08:35 S 3 7.00 Partly Cloudy SCT080 SCT120 76.1 71.4 86% 77 30.26 0.0
19 08:15 Calm 7.00 Mostly Cloudy BKN090 74.8 71.6 90% 30.26 0.0
19 07:55 Calm 7.00 Fair CLR 73.8 71.8 92.8 24.3 94% 30.24 0.0
19 07:35 Calm 10.00 Partly Cloudy SCT090 73 71.6 95% 30.24 0.0
19 07:15 Calm 7.00 Partly Cloudy SCT090 72.7 71.4 96% 30.23 0.0
19 06:55 Calm 7.00 Fair CLR 72.3 70.9 95% 30.22 0.0
19 06:35 Calm 7.00 Fair CLR 72.3 70.9 95% 30.21 0.0
19 06:15 Calm 10.00 Fair CLR 72.5 71.1 95% 30.21 0.0
19 05:55 Calm 10.00 Partly Cloudy SCT075 72.5 70.9 95% 30.21 0.0
19 05:35 Calm 10.00 Partly Cloudy SCT075 72.5 70.7 94% 30.2 0.0
19 05:15 Calm 10.00 Partly Cloudy SCT048 72.9 70.9 94% 30.2 0.0
Date Time (edt) Wind (mph) Vis. (mi.) Weather Sky Cond. Air Dwpt Max. Min. Relative Humidity Wind Chill (°F) Heat Index (°F) altimeter (in) sea level (mb) 1 hr 3 hr 6 hr
6 hour
Temperature (ºF) Pressure Precipitation (in)